(225088) Gonggong
ephemeris date magn radius delta ra dec elong phase
Today19 Apr 202421.589.342 AU89.934 AU22h30m-10°32'53.6°0.5°
Opposition27 Aug 202421.489.419 AU88.409 AU22h29m-10°39'178.7°0.0°
(225088) Gonggong - 2024-04-19
astro.vanbuitenen.nl


 
-1 year
-1 month
-1 day
Now
+1 day
+1 month
+1 year

The interactive orbit chart above shows the body's path through the solar system and its position at the given date. Green and blue lines are shown perpendicular to the ecliptic plane: Green if the path is above the ecliptic plane, blue if it is below. (Left-click and drag to rotate the view; Right-click and drag to move the view; Use scroll wheel to zoom in our out.)

The orbital elements of Gonggong are:

            e (Eccentricity)                : 0.4976969
            a (Semimajor axis)              : 67.3689423
            i (Inclination)                 : 30.61495
            Ω (Longitude of ascending node) : 336.85877
            ω (Argument of perihelion)      : 207.40253
            M (Mean anomaly)                : 108.30335
            Epoch                           : 2022 Aug 09

            L (Longitude of perihelion)     : 0.90260
            B (Latitude of perihelion)      : -13.55532
            P (Orbital period in years)     : 552.95            
        

The light curve chart below shows the estimated development of the minor planet's magnitude.


The all-sky chart below shows the path of the minor planet over the same period as the light curve. The current position is marked yellow.





The following chart shows the path of the minor planet in the next few days. The field of view is optimized for (~10x50) binoculars and finderscopes. A more printer-friendly version of the same chart can be found below.




Ephemerides:
Date       Time       RA (2000)    DEC (2000)    delta   radius  elong  phase   PA    magn
2024-04-19 00:00 UT   22 30 49.9   -10 32 15    89.934   89.342   53.6    0.5   248   21.5 
2024-04-19 05:34 UT   22 30 50.2   -10 32 12    89.931   89.342   53.8    0.5   248   21.5 
2024-04-20 00:00 UT   22 30 51.5   -10 32 04    89.921   89.343   54.6    0.5   248   21.5 
2024-04-21 00:00 UT   22 30 53.1   -10 31 54    89.907   89.343   55.6    0.5   248   21.5 
2024-04-22 00:00 UT   22 30 54.6   -10 31 44    89.894   89.344   56.5    0.5   248   21.5 
2024-04-23 00:00 UT   22 30 56.2   -10 31 34    89.880   89.344   57.5    0.5   248   21.5 
2024-04-24 00:00 UT   22 30 57.7   -10 31 24    89.867   89.345   58.5    0.5   248   21.5 
2024-04-25 00:00 UT   22 30 59.1   -10 31 15    89.853   89.346   59.4    0.6   248   21.5 
2024-04-26 00:00 UT   22 31 00.5   -10 31 05    89.839   89.346   60.4    0.6   248   21.5 
2024-04-27 00:00 UT   22 31 01.9   -10 30 56    89.825   89.347   61.4    0.6   248   21.5 
2024-04-28 00:00 UT   22 31 03.3   -10 30 47    89.810   89.347   62.3    0.6   248   21.5 
2024-04-29 00:00 UT   22 31 04.6   -10 30 39    89.796   89.348   63.3    0.6   248   21.5 
2024-04-30 00:00 UT   22 31 05.8   -10 30 30    89.781   89.349   64.3    0.6   248   21.5 
2024-05-01 00:00 UT   22 31 07.1   -10 30 22    89.766   89.349   65.2    0.6   248   21.5 
2024-05-02 00:00 UT   22 31 08.3   -10 30 14    89.752   89.350   66.2    0.6   248   21.5 
2024-05-03 00:00 UT   22 31 09.4   -10 30 06    89.737   89.350   67.2    0.6   248   21.5 
2024-05-04 00:00 UT   22 31 10.6   -10 29 59    89.722   89.351   68.1    0.6   248   21.5 
2024-05-05 00:00 UT   22 31 11.6   -10 29 51    89.706   89.352   69.1    0.6   248   21.5 
2024-05-06 00:00 UT   22 31 12.7   -10 29 44    89.691   89.352   70.0    0.6   248   21.5 
2024-05-07 00:00 UT   22 31 13.7   -10 29 38    89.676   89.353   71.0    0.6   248   21.5 
2024-05-08 00:00 UT   22 31 14.7   -10 29 31    89.660   89.353   72.0    0.6   248   21.5 
2024-05-09 00:00 UT   22 31 15.6   -10 29 25    89.645   89.354   72.9    0.6   248   21.5 
2024-05-10 00:00 UT   22 31 16.5   -10 29 18    89.629   89.355   73.9    0.6   248   21.5 
2024-05-11 00:00 UT   22 31 17.3   -10 29 13    89.613   89.355   74.9    0.6   248   21.5 
2024-05-12 00:00 UT   22 31 18.1   -10 29 07    89.597   89.356   75.8    0.6   248   21.5 
2024-05-13 00:00 UT   22 31 18.9   -10 29 02    89.582   89.356   76.8    0.6   248   21.5 
2024-05-14 00:00 UT   22 31 19.6   -10 28 56    89.566   89.357   77.8    0.6   248   21.5 
2024-05-15 00:00 UT   22 31 20.3   -10 28 51    89.550   89.358   78.7    0.6   248   21.5 
2024-05-16 00:00 UT   22 31 20.9   -10 28 47    89.534   89.358   79.7    0.6   248   21.5 
2024-05-17 00:00 UT   22 31 21.5   -10 28 42    89.517   89.359   80.6    0.6   248   21.5 
2024-05-18 00:00 UT   22 31 22.1   -10 28 38    89.501   89.359   81.6    0.6   248   21.5 
2024-05-19 00:00 UT   22 31 22.6   -10 28 34    89.485   89.360   82.6    0.6   248   21.5 


    Terminology:
            
    delta:  distance between minor planet and earth in AU
    radius: distance between minor planet and sun in AU
    magn:   magnitude (brightness) estimate    
    ra:     right ascension in hours (24h = 360deg)
    dec:    declination in degrees
    elong:  elongation in degrees (angle sun-earth-minor planet)    
    phase:  phase angle in degrees (angle sun-minor planet-earth)        
    AU:     Astronomical Unit (mean distance between earth and sun: 149597870.7 km
    

Orbital elements provided by the MPC (Minor Planet Center).
Calculations by a modified version of AAPlus, a C# implementation of the AA+ project by PJ Naughter from the algorithms presented in the book "Astronomical Algorithms" by Jean Meeus.
NGC2000 dso catalog and star labels from VizieR as provided by the Strasbourg astronomical Data Center.
Tycho2 catalog from the ESO archive.